EA1IDU Weather Reports


Display with metric or nautical units.
time (UTC)temp
F
wind
direction
speed
MPH
gust
MPH
rain 1hr
in
rain 24hr
in
rain mn
in
humidity
%
barometer
mb
20260506175026 57 31 3.0 6.0 0.00 0.00 0.00 55 1012.8
20260506174022 57 18 2.0 7.0 0.00 0.00 0.00 54 1012.9
20260506173036 57 39 2.0 6.0 0.00 0.00 0.00 54 1013.0
20260506172111 57 35 3.0 6.0 0.00 0.00 0.00 54 1012.9
20260506171106 56 347 2.0 6.0 0.00 0.00 0.00 54 1013.0
20260506165056 56 29 4.0 6.0 0.00 0.00 0.00 57 1013.0
20260506164051 56 16 3.0 9.0 0.00 0.00 0.00 55 1012.9
20260506163127 56 45 6.0 11.0 0.00 0.01 0.00 56 1013.0
20260506162042 57 305 5.0 11.0 0.00 0.02 0.00 53 1012.8
20260506161037 57 339 6.0 13.0 0.00 0.02 0.00 51 1013.0
20260506160032 57 332 4.0 8.0 0.00 0.02 0.00 48 1013.0
20260506155047 59 337 1.0 4.0 0.00 0.02 0.00 43 1012.9
20260506154043 57 0 0.0 2.0 0.00 0.02 0.00 44 1013.0
20260506153037 56 321 2.0 4.0 0.00 0.02 0.00 47 1013.3
20260506152112 56 331 4.0 7.0 0.00 0.05 0.00 49 1013.3
20260506151107 57 27 3.0 9.0 0.00 0.05 0.00 45 1013.3
20260506150145 57 335 2.0 4.0 0.00 0.07 0.00 43 1013.4
20260506145057 58 18 4.0 8.0 0.00 0.07 0.00 45 1013.5
20260506144052 59 11 1.0 4.0 0.00 0.07 0.00 43 1013.7
20260506143047 58 339 2.0 8.0 0.00 0.07 0.00 45 1013.6
20260506142044 58 287 6.0 9.0 0.00 0.07 0.00 46 1013.8
20260506141037 59 266 2.0 7.0 0.00 0.07 0.00 44 1013.9
20260506140032 57 260 3.0 6.0 0.00 0.07 0.00 47 1014.0
20260506135027 57 260 3.0 7.0 0.00 0.07 0.00 48 1014.2
20260506134043 56 291 4.0 8.0 0.00 0.07 0.00 51 1014.3
20260506133019 57 18 3.0 11.0 0.00 0.07 0.00 50 1014.4
20260506132113 57 294 1.0 4.0 0.00 0.07 0.00 50 1014.4
20260506131108 56 302 3.0 4.0 0.00 0.07 0.00 53 1014.3
20260506125058 54 315 5.0 9.0 0.00 0.07 0.00 58 1014.4
20260506124053 55 17 6.0 11.0 0.00 0.07 0.00 56 1014.5
20260506123048 57 292 1.0 4.0 0.00 0.07 0.00 47 1014.5
20260506122043 56 229 2.0 4.0 0.00 0.07 0.00 49 1014.5
20260506121038 54 0.0 2.0 0.00 0.07 0.00 51 1014.6
20260506120033 53 272 2.0 4.0 0.00 0.07 0.00 54 1014.8
20260506115048 53 317 4.0 6.0 0.00 0.07 0.00 56 1014.9
20260506114023 54 295 2.0 6.0 0.00 0.07 0.00 56 1014.9
20260506113019 55 244 1.0 4.0 0.00 0.07 0.00 54 1014.9
20260506112114 53 211 2.0 4.0 0.00 0.07 0.00 56 1015.0
20260506111108 53 112 2.0 4.0 0.00 0.07 0.00 58 1014.9
20260506110103 52 45 2.0 4.0 0.00 0.07 0.00 60 1014.9
20260506105058 51 339 2.0 4.0 0.00 0.07 0.00 62 1014.8
20260506104135 53 328 2.0 6.0 0.00 0.07 0.00 60 1015.0
20260506103129 53 196 2.0 4.0 0.00 0.07 0.00 60 1015.0
20260506102104 52 199 4.0 8.0 0.00 0.07 0.00 63 1015.2
20260506101059 51 211 2.0 4.0 0.00 0.07 0.00 66 1015.1
20260506100053 52 199 1.0 4.0 0.00 0.07 0.00 63 1015.3
20260506095028 52 91 1.0 4.0 0.00 0.07 0.00 61 1015.2
20260506094023 49 57 0.0 2.0 0.00 0.07 0.00 68 1015.3
20260506093018 49 303 2.0 4.0 0.00 0.07 0.00 70 1015.2
20260506092113 49 265 4.0 7.0 0.00 0.07 0.00 70 1015.1
20260506091108 48 299 4.0 7.0 0.00 0.07 0.00 72 1015.2
20260506085119 48 224 2.0 4.0 0.00 0.07 0.00 75 1015.2
20260506084053 47 253 3.0 7.0 0.00 0.07 0.00 77 1015.0
20260506083048 48 267 2.0 4.0 0.00 0.07 0.00 76 1015.2
20260506082043 48 207 1.0 2.0 0.00 0.07 0.00 77 1015.2
20260506081059 48 0.0 2.0 0.00 0.07 0.00 76 1015.2
20260506073019 47 315 0.0 2.0 0.00 0.07 0.00 78 1015.2
20260506072114 47 0.0 0.0 0.00 0.07 0.00 80 1015.2
20260506071109 44 0.0 2.0 0.00 0.07 0.00 84 1015.0
20260506070103 43 0.0 0.0 0.00 0.07 0.00 85 1015.1
20260506062043 41 27 1.0 2.0 0.00 0.07 0.00 90 1014.8
20260506061038 40 45 1.0 2.0 0.00 0.07 0.00 90 1014.8
20260506051108 40 0.0 0.0 0.00 0.07 0.00 91 1014.3
20260506050103 40 0.0 2.0 0.00 0.07 0.00 91 1014.3
20260506045118 40 0.0 0.0 0.00 0.07 0.00 91 1014.3
20260506044054 40 0.0 0.0 0.00 0.07 0.00 91 1014.4
20260506043049 40 0.0 0.0 0.00 0.07 0.00 90 1014.5
20260506042044 40 0.0 0.0 0.00 0.07 0.00 90 1014.5
20260506041059 40 79 2.0 4.0 0.00 0.07 0.00 90 1014.7
20260506040034 39 101 2.0 4.0 0.00 0.07 0.00 91 1014.6
20260506035128 39 65 1.0 4.0 0.00 0.07 0.00 92 1014.8
20260506034023 39 61 1.0 2.0 0.00 0.07 0.00 93 1014.8
20260506033038 39 0.0 0.0 0.00 0.07 0.00 93 1014.8
20260506032154 40 143 1.0 4.0 0.00 0.07 0.00 94 1014.8
20260506031108 39 0.0 0.0 0.00 0.07 0.00 94 1014.8
20260506030143 39 68 1.0 2.0 0.00 0.07 0.00 94 1014.7
20260506025057 39 0.0 0.0 0.00 0.07 0.00 94 1014.7
20260506024053 39 0.0 0.0 0.00 0.07 0.00 94 1014.7
20260506023049 39 0.0 2.0 0.00 0.07 0.00 94 1014.6
20260506022043 39 15 0.0 2.0 0.00 0.07 0.00 94 1014.6
20260506021038 39 56 1.0 2.0 0.00 0.07 0.00 94 1014.9
20260506020033 39 0.0 2.0 0.00 0.07 0.00 94 1014.8
20260506015028 39 0.0 0.0 0.00 0.07 0.00 94 1014.8
20260506014023 39 0.0 0.0 0.00 0.07 0.00 94 1014.7
20260506013018 39 0.0 0.0 0.00 0.07 0.00 94 1014.8
20260506012113 40 56 1.0 2.0 0.00 0.07 0.00 94 1014.8
20260506011131 40 75 2.0 4.0 0.00 0.07 0.00 94 1014.9
20260506010124 40 0.0 0.0 0.00 0.07 0.00 94 1014.8
20260506005058 40 45 1.0 2.0 0.00 0.07 0.00 94 1015.0
20260506004054 40 45 0.0 2.0 0.00 0.07 0.00 93 1015.1
20260506003049 40 78 2.0 2.0 0.00 0.07 0.00 93 1015.0
20260506002044 41 0.0 0.0 0.00 0.07 0.00 93 1015.2
20260506001119 41 0.0 0.0 0.00 0.07 0.00 93 1015.2
20260506000034 42 225 0.0 2.0 0.00 0.07 0.00 93 1015.2
20260505235029 41 0.0 2.0 0.00 0.07 0.00 92 1015.1
20260505234024 42 0.0 0.0 0.00 0.07 0.00 92 1015.2
20260505233040 42 0.0 0.0 0.00 0.07 0.00 92 1015.2
20260505232114 42 0.0 0.0 0.00 0.07 0.00 91 1015.1
20260505231110 42 0.0 0.0 0.00 0.07 0.00 91 1015.2
20260505230104 42 56 1.0 2.0 0.00 0.07 0.00 91 1015.1
20260505225119 43 45 0.0 4.0 0.00 0.07 0.00 91 1015.4
20260505224115 43 0 0.0 2.0 0.00 0.07 0.00 90 1015.3
20260505223109 43 45 3.0 4.0 0.00 0.07 0.00 90 1015.4
20260505222046 43 67 4.0 6.0 0.00 0.07 0.00 90 1015.4
20260505221041 43 53 1.0 2.0 0.00 0.07 0.00 90 1015.5
20260505220034 44 338 2.0 2.0 0.00 0.07 0.00 89 1015.6
20260505215028 44 0.0 0.0 0.00 0.07 0.07 89 1015.6
20260505214023 43 45 1.0 2.0 0.00 0.07 0.07 90 1015.6
20260505213039 44 23 1.0 2.0 0.00 0.07 0.07 90 1015.7
20260505212114 44 23 0.0 2.0 0.00 0.07 0.07 90 1015.9
20260505211109 44 0 0.0 2.0 0.00 0.07 0.07 89 1015.8
20260505210104 44 329 2.0 4.0 0.00 0.07 0.07 88 1015.8
20260505205100 44 340 1.0 4.0 0.00 0.07 0.07 87 1015.6
20260505204053 44 45 3.0 4.0 0.00 0.07 0.07 87 1015.4
20260505203048 45 0.0 0.0 0.00 0.07 0.07 87 1015.5
20260505202103 45 45 0.0 2.0 0.00 0.07 0.07 86 1015.4
20260505201039 45 0.0 2.0 0.00 0.07 0.07 86 1015.4
20260505200035 45 45 1.0 2.0 0.00 0.07 0.07 84 1015.4
20260505195029 45 343 0.0 2.0 0.00 0.07 0.07 84 1015.2
20260505194024 45 23 1.0 2.0 0.00 0.09 0.07 83 1015.1
20260505193019 46 45 3.0 4.0 0.00 0.13 0.07 81 1014.8
20260505192134 46 42 4.0 4.0 0.00 0.15 0.07 81 1014.7
20260505191109 46 45 3.0 4.0 0.00 0.15 0.07 81 1014.8
20260505190104 47 45 4.0 6.0 0.00 0.15 0.07 79 1014.5
20260505185059 47 48 3.0 6.0 0.00 0.15 0.07 78 1014.5
20260505184054 47 54 5.0 8.0 0.00 0.15 0.07 79 1014.5
20260505183049 47 35 4.0 7.0 0.00 0.15 0.07 78 1014.5
20260505182044 47 48 5.0 6.0 0.00 0.15 0.07 79 1014.2
20260505181040 46 42 4.0 6.0 0.00 0.15 0.07 81 1014.4
20260505180034 46 49 6.0 8.0 0.00 0.15 0.07 81 1014.4